Grafton, ND

4:13 AM CST on November 19, 2017 (GMT -0600)
Grafton Municipal

Weather History for KGAF - January, 2014

Change the Weather History Date:

Wednesday, January 1, 2014

  Actual Average Record
Temperature  
Mean Temperature -16 °F -  
Max Temperature -9 °F 12 °F 39 °F (1954)
Min Temperature -22 °F -4 °F -33 °F (1974)
Degree Days  
Heating Degree Days 80    
Moisture  
Dew Point -22 °F    
Average Humidity 74    
Maximum Humidity 84    
Minimum Humidity 65    
Precipitation  
Precipitation 0.00 in - - ()
Sea Level Pressure  
Sea Level Pressure 30.50 in    
Wind  
Wind Speed 2 mph (SSE)    
Max Wind Speed 7 mph    
Max Gust Speed -    
Visibility 9 miles    
Events Snow    
Averages and records for this station are not official NWS values.
T = Trace of Precipitation, MM = Missing Value Source: NWS Daily Summary

Daily Weather History Graph

Daily Weather History Graph

Search for Another Location

Airport or City:

Trip Planner

Search our weather history database for the weather conditions in past years. The results will help you decide how hot, cold, wet, or windy it might be!

Date:

Astronomy

Jan. 01, 2014 Rise Set
Actual Time 8:20 AM CST 4:45 PM CST
Civil Twilight 7:44 AM CST 5:22 PM CST
Nautical Twilight 7:04 AM CST 6:01 PM CST
Astronomical Twilight 6:26 AM CST 6:39 PM CST
Moon 8:06 AM CST (1/1) 5:38 PM CST (1/1)
Length of Visible Light 9h 37m
Length of Day
8h 24m
New Moon, 0% of the Moon is Illuminated
Jan 1
New Moon
Jan 7
First Quarter
Jan 15
Full
Jan 23
Last Quarter
Jan 30
New

Hourly Weather History & Observations

Time (CST) Temp. Windchill Dew Point Humidity Pressure Visibility Wind Dir Wind Speed Gust Speed Precip Events Conditions
12:15 AM -16.6 °F - -23.8 °F 70% 30.47 in 10.0 mi Calm Calm - N/A   Clear
12:35 AM -16.6 °F -26.8 °F -23.8 °F 70% 30.48 in 10.0 mi SW 3.5 mph - N/A   Clear
12:55 AM -16.6 °F -26.8 °F -23.8 °F 70% 30.47 in 10.0 mi South 3.5 mph - N/A   Scattered Clouds
1:15 AM -16.6 °F -26.8 °F -22.0 °F 76% 30.46 in 10.0 mi South 3.5 mph - N/A   Partly Cloudy
1:35 AM -16.6 °F - -22.0 °F 76% 30.46 in 10.0 mi Calm Calm - N/A   Clear
1:55 AM -16.6 °F -26.8 °F -22.0 °F 76% 30.47 in 10.0 mi South 3.5 mph - N/A   Clear
2:15 AM -16.6 °F - -22.0 °F 76% 30.47 in 10.0 mi Calm Calm - N/A   Clear
2:35 AM -16.6 °F - -22.0 °F 76% 30.47 in 10.0 mi Calm Calm - N/A   Clear
2:55 AM -14.8 °F -27.2 °F -22.0 °F 70% 30.47 in 10.0 mi East 4.6 mph - N/A   Scattered Clouds
3:15 AM -14.8 °F -29.1 °F -22.0 °F 70% 30.47 in 10.0 mi ESE 5.8 mph - N/A   Mostly Cloudy
3:35 AM -16.6 °F -31.3 °F -22.0 °F 76% 30.47 in 10.0 mi ESE 5.8 mph - N/A   Overcast
3:55 AM -16.6 °F -31.3 °F -22.0 °F 76% 30.47 in 10.0 mi ESE 5.8 mph - N/A   Overcast
4:15 AM -16.6 °F -31.3 °F -22.0 °F 76% 30.47 in 10.0 mi ESE 5.8 mph - N/A   Overcast
4:35 AM -16.6 °F -31.3 °F -22.0 °F 76% 30.47 in 7.0 mi ESE 5.8 mph - N/A   Overcast
4:55 AM -16.6 °F -29.3 °F -22.0 °F 76% 30.47 in 10.0 mi ESE 4.6 mph - N/A   Overcast
5:15 AM -16.6 °F -29.3 °F -22.0 °F 76% 30.47 in 5.0 mi ESE 4.6 mph - N/A   Haze
5:35 AM -16.6 °F -29.3 °F -22.0 °F 76% 30.47 in 10.0 mi ESE 4.6 mph - N/A   Clear
5:55 AM -16.6 °F -31.3 °F -22.0 °F 76% 30.46 in 10.0 mi East 5.8 mph - N/A Snow Light Snow
6:15 AM -16.6 °F -26.8 °F -22.0 °F 76% 30.48 in 10.0 mi SE 3.5 mph - N/A   Clear
6:35 AM -16.6 °F - -22.0 °F 76% 30.48 in 10.0 mi Calm Calm - N/A   Scattered Clouds
6:55 AM -16.6 °F - -22.0 °F 76% 30.48 in 9.0 mi Calm Calm - N/A Snow Light Snow
7:15 AM -16.6 °F -26.8 °F -22.0 °F 76% 30.48 in 7.0 mi SE 3.5 mph - N/A Snow Light Snow
7:35 AM -16.6 °F -26.8 °F -22.0 °F 76% 30.48 in 10.0 mi ESE 3.5 mph - N/A   Scattered Clouds
7:55 AM -14.8 °F -24.8 °F -22.0 °F 70% 30.49 in 10.0 mi East 3.5 mph - N/A   Mostly Cloudy
8:15 AM -14.8 °F - -22.0 °F 70% 30.49 in 8.0 mi Calm Calm - N/A   Overcast
8:35 AM -14.8 °F - -22.0 °F 70% 30.50 in 9.0 mi Calm Calm - N/A   Overcast
8:55 AM -14.8 °F - -22.0 °F 70% 30.51 in 8.0 mi Calm Calm - N/A   Overcast
9:15 AM -14.8 °F -24.8 °F -22.0 °F 70% 30.52 in 2.5 mi SE 3.5 mph - N/A Snow Light Snow
9:35 AM -14.8 °F - -22.0 °F 70% 30.53 in 2.5 mi Calm Calm - N/A Snow Light Snow
9:55 AM -14.8 °F - -20.2 °F 77% 30.53 in 3.0 mi Calm Calm - N/A Snow Light Snow
10:15 AM -14.8 °F -24.8 °F -20.2 °F 77% 30.53 in 7.0 mi SSE 3.5 mph - N/A   Overcast
10:35 AM -13.0 °F - -20.2 °F 70% 30.53 in 7.0 mi Calm Calm - N/A   Overcast
10:55 AM -13.0 °F - -20.2 °F 70% 30.54 in 8.0 mi Calm Calm - N/A   Overcast
11:15 AM -13.0 °F - -20.2 °F 70% 30.54 in 8.0 mi Calm Calm - N/A   Overcast
11:35 AM -13.0 °F - -20.2 °F 70% 30.53 in 10.0 mi Calm Calm - N/A   Mostly Cloudy
11:55 AM -13.0 °F - -20.2 °F 70% 30.54 in 10.0 mi Calm Calm - N/A   Clear
12:15 PM -13.0 °F - -20.2 °F 70% 30.53 in 9.0 mi Calm Calm - N/A   Clear
12:35 PM -13.0 °F - -20.2 °F 70% 30.52 in 7.0 mi Calm Calm - N/A Snow Light Snow
12:55 PM -11.2 °F - -18.4 °F 70% 30.52 in 6.0 mi Calm Calm - N/A Snow Light Snow
1:15 PM -11.2 °F - -18.4 °F 70% 30.51 in 9.0 mi Calm Calm - N/A   Clear
1:35 PM -11.2 °F - -18.4 °F 70% 30.50 in 7.0 mi Calm Calm - N/A   Clear
1:55 PM -9.4 °F - -16.6 °F 71% 30.50 in 4.0 mi Calm Calm - N/A Snow Light Snow
2:15 PM -9.4 °F - -18.4 °F 65% 30.50 in 4.0 mi Calm Calm - N/A Snow Light Snow
2:35 PM -9.4 °F - -16.6 °F 71% 30.50 in 5.0 mi Calm Calm - N/A   Haze
2:55 PM -9.4 °F - -16.6 °F 71% 30.50 in 7.0 mi Calm Calm - N/A   Overcast
3:15 PM -11.2 °F -20.6 °F -16.6 °F 77% 30.49 in 8.0 mi ESE 3.5 mph - N/A   Mostly Cloudy
3:35 PM -11.2 °F - -16.6 °F 77% 30.49 in 9.0 mi Calm Calm - N/A   Overcast
3:55 PM -11.2 °F - -18.4 °F 70% 30.50 in 10.0 mi Calm Calm - N/A   Mostly Cloudy
4:15 PM -11.2 °F -23.0 °F -18.4 °F 70% 30.50 in 10.0 mi SSE 4.6 mph - N/A   Partly Cloudy
4:35 PM -13.0 °F -22.7 °F -20.2 °F 70% 30.50 in 10.0 mi South 3.5 mph - N/A   Clear
4:55 PM -14.8 °F -24.8 °F -20.2 °F 77% 30.50 in 10.0 mi SSW 3.5 mph - N/A   Clear
5:15 PM -13.0 °F -25.1 °F -20.2 °F 70% 30.51 in 10.0 mi SSW 4.6 mph - N/A   Clear
5:35 PM -14.8 °F -27.2 °F -20.2 °F 77% 30.51 in 10.0 mi South 4.6 mph - N/A   Clear
5:55 PM -16.6 °F -26.8 °F -20.2 °F 84% 30.51 in 10.0 mi South 3.5 mph - N/A   Clear
6:15 PM -16.6 °F -29.3 °F -22.0 °F 76% 30.50 in 8.0 mi South 4.6 mph - N/A   Clear
6:35 PM -16.6 °F -31.3 °F -22.0 °F 76% 30.51 in 7.0 mi South 5.8 mph - N/A   Clear
6:55 PM -18.4 °F -31.4 °F -22.0 °F 84% 30.51 in 3.0 mi SSE 4.6 mph - N/A   Haze
7:15 PM -18.4 °F - -23.8 °F 76% 30.51 in 10.0 mi Calm Calm - N/A   Clear
7:35 PM -18.4 °F - -22.0 °F 84% 30.52 in 10.0 mi Calm Calm - N/A   Clear
7:55 PM -16.6 °F - -22.0 °F 76% 30.51 in 10.0 mi Calm Calm - N/A   Clear
8:15 PM -18.4 °F -31.4 °F -22.0 °F 84% 30.50 in 10.0 mi South 4.6 mph - N/A   Clear
8:35 PM -20.2 °F -35.5 °F -25.6 °F 76% 30.51 in 5.0 mi South 5.8 mph - N/A   Haze
8:55 PM -20.2 °F -37.3 °F -27.4 °F 69% 30.51 in 10.0 mi SSW 6.9 mph - N/A   Clear
9:15 PM -20.2 °F -35.5 °F -25.6 °F 76% 30.50 in 10.0 mi SSW 5.8 mph - N/A   Clear
9:35 PM -20.2 °F -35.5 °F -27.4 °F 69% 30.50 in 10.0 mi SSW 5.8 mph - N/A   Clear
9:55 PM -20.2 °F - -25.6 °F 76% 30.50 in 10.0 mi Calm Calm - N/A   Clear
10:15 PM -20.2 °F -33.5 °F -25.6 °F 76% 30.50 in 10.0 mi South 4.6 mph - N/A   Clear
10:35 PM -22.0 °F -39.4 °F -27.4 °F 76% 30.49 in 10.0 mi South 6.9 mph - N/A   Clear
10:55 PM -20.2 °F -37.3 °F -27.4 °F 69% 30.49 in 10.0 mi SSW 6.9 mph - N/A   Clear
11:15 PM -22.0 °F -37.7 °F -27.4 °F 76% 30.49 in 10.0 mi SW 5.8 mph - N/A   Clear
11:35 PM -20.2 °F -33.5 °F -25.6 °F 76% 30.49 in 10.0 mi SW 4.6 mph - N/A   Clear
11:55 PM -22.0 °F - -27.4 °F 76% 30.49 in 10.0 mi Calm Calm - N/A   Clear